[[{"header":{"parameterUnit":"m.s-1","parameterCategory":1,"la1":30.2991,"la2":30.254,"lo1":-89.0895,"lo2":-89.0444,"dy":0.0017,"dx":0.0017,"nx":28,"ny":28,"refTime":"2024-12-03T09:00:00:Z","depth":0,"parameterNumber":2,"parameterNumberName":"U-component_of_WINDS"},"data":[0,0,0,0,0,0,0,0,0,0,0,0,0,0,0,0,0,0,0,0,0,0,0,0,0,0,0,0,0,0,0,0,0,0,0,0,0,0,0,0,0,0,0,0,0,0,0,0,0,0,0,0,0,0,0,0,0,0,-2.5098,-2.5098,0,-2.5111,-2.5112,-2.5112,-2.5042,-2.504,-2.5038,-2.5036,-2.5052,-2.5054,-2.5056,0,0,0,0,0,0,0,0,0,0,0,0,0,-2.5015,-2.5017,-2.5098,-2.5098,-2.5099,-2.5111,-2.5112,-2.5112,-2.5042,-2.504,-2.5038,-2.5035,-2.5051,-2.5054,-2.5056,0,0,0,0,0,0,0,0,0,0,0,0,0,-2.5042,-2.5017,-2.5098,-2.5066,-2.5063,-2.5111,-2.5112,-2.5112,-2.5043,-2.504,-2.5037,-2.5034,-2.505,-2.5053,-2.5057,-2.5138,0,0,-2.5067,-2.5069,0,0,0,0,0,0,0,0,-2.504,-2.5045,-2.507,-2.5068,-2.5065,-2.5072,-2.5088,-2.5121,-2.5044,-2.5051,-2.5036,-2.5033,-2.5061,-2.5063,-2.5072,-2.5139,-2.5139,-2.5067,-2.5069,-2.5071,-2.5072,0,0,0,0,0,0,0,-2.5039,-2.5044,-2.5103,-2.5071,-2.5067,-2.5051,-2.5051,-2.5094,-2.5073,-2.505,-2.5045,-2.5047,-2.5059,-2.5069,-2.5072,-2.5139,-2.5067,-2.507,-2.5072,-2.5074,-2.5274,-2.5277,0,0,0,0,0,0,-2.5041,-2.5043,-2.5103,-2.5104,-2.5045,-2.5055,-2.5055,-2.5073,-2.5072,-2.5069,-2.505,-2.5044,-2.5065,-2.5068,-2.5073,-2.5169,-2.5071,-2.5074,-2.5076,-2.5271,-2.5275,-2.5278,0,0,0,0,0,0,-2.5039,-2.5047,-2.5103,-2.5072,-2.5078,-2.5059,-2.508,-2.5075,-2.5085,-2.5072,-2.5068,-2.5064,-2.5063,-2.5068,-2.5122,-2.5168,-2.5076,-2.5079,-2.5267,-2.5272,-2.5276,-2.5361,0,0,0,0,0,0,-2.5037,-2.5047,-2.5077,-2.5073,-2.508,-2.5152,-2.5082,-2.5077,-2.5091,-2.5083,-2.5084,-2.5082,-2.5061,-2.5118,-2.5126,-2.5171,-2.5081,-2.5263,-2.5269,-2.5275,-2.5354,-2.5368,-2.5381,0,0,0,0,0,-2.5035,-2.5101,-2.5079,-2.5087,-2.5117,-2.5155,-2.5158,-2.5133,-2.5095,-2.5126,-2.5117,-2.5082,-2.5161,-2.5124,-2.5132,-2.518,-2.526,-2.5267,-2.5274,-2.5348,-2.5366,-2.538,0,0,0,0,0,0,-2.5111,-2.51,-2.5076,-2.5142,-2.515,-2.5143,-2.5181,-2.5152,-2.5171,-2.5163,-2.513,-2.5131,-2.5192,-2.5191,-2.5149,-2.5259,-2.5204,-2.5214,-2.5257,-2.5274,-2.5287,-2.5286,-2.5084,0,0,0,0,0,-2.5136,-2.5167,-2.5155,-2.5215,-2.522,-2.52,-2.5215,-2.5194,-2.5201,-2.5205,-2.52,-2.5209,-2.5235,-2.5254,-2.5278,-2.5353,-2.5353,-2.539,-2.5403,-2.5414,-2.5423,-2.5464,-2.548,-2.5302,-2.5302,-2.5302,0,0,-2.5187,-2.5185,-2.5206,-2.523,-2.5234,-2.5267,-2.5203,-2.5241,-2.5266,-2.521,-2.5262,-2.5259,-2.5266,-2.5332,-2.536,-2.5333,-2.5472,-2.5423,-2.5432,-2.5435,-2.5473,-2.549,-2.5505,-2.5307,-2.5306,-2.5306,0,0,-2.5298,-2.5299,-2.5349,-2.5354,-2.536,-2.5346,-2.5358,-2.5356,-2.5351,-2.5402,-2.5362,-2.5391,-2.5437,-2.5445,-2.5455,-2.5568,-2.5537,-2.5577,-2.5646,-2.5686,-2.57,-2.5713,-2.5755,-2.577,-2.5585,-2.5586,-2.5586,0,-2.5362,-2.541,-2.5379,-2.542,-2.5433,-2.5383,-2.5435,-2.544,-2.5454,-2.5464,-2.5433,-2.5491,-2.5492,-2.5559,-2.5587,-2.5596,-2.561,-2.5578,-2.5701,-2.5713,-2.5724,-2.5764,-2.5779,-2.5591,-2.559,-2.559,-2.5589,0,-2.5488,-2.5523,-2.5563,-2.5577,-2.5593,-2.564,-2.5617,-2.5637,-2.5615,-2.5604,-2.5657,-2.5657,-2.5681,-2.5694,-2.5673,-2.5759,-2.5742,-2.5706,-2.5651,-2.5746,-2.5783,-2.5798,-2.5598,-2.5596,-2.5595,-2.5593,0,0,-2.565,-2.5646,-2.5662,-2.5668,-2.567,-2.5697,-2.574,-2.5763,-2.5782,-2.5792,-2.583,-2.587,-2.5837,-2.5848,-2.5827,-2.5862,-2.5954,-2.5822,-2.5822,-2.5848,-2.605,-2.6079,-2.6097,-2.5932,-2.5935,-2.5937,-2.605,0,-2.576,-2.5835,-2.5808,-2.5885,-2.5917,-2.587,-2.5908,-2.5914,-2.5906,-2.5932,-2.5922,-2.5952,-2.5905,-2.5912,-2.5944,-2.5936,-2.5994,-2.5927,-2.5968,-2.597,-2.597,-2.6116,-2.6146,-2.6253,-2.6064,-2.6067,-2.6068,0,-2.5899,-2.5915,-2.5995,-2.5993,-2.6005,-2.604,-2.6059,-2.6084,-2.609,-2.6081,-2.6094,-2.6065,-2.6109,-2.6052,-2.6112,-2.6067,-2.6082,-2.6081,-2.6084,-2.6089,-2.6026,-2.6126,-2.6286,-2.6303,-2.609,-2.6089,-2.6087,0,-2.6011,-2.6053,-2.6106,-2.6113,-2.6111,-2.6137,-2.6137,-2.614,-2.6155,-2.6172,-2.6182,-2.6203,-2.6215,-2.6233,-2.6211,-2.6171,-2.6275,-2.6216,-2.627,-2.6271,-2.6296,-2.6296,-2.6463,-2.6303,-2.6302,-2.6302,-2.6302,0,-2.6138,-2.619,-2.6157,-2.619,-2.6246,-2.6215,-2.6272,-2.6267,-2.627,-2.6302,-2.6261,-2.6292,-2.6261,-2.6289,-2.6272,-2.6325,-2.6331,-2.6326,-2.6321,-2.6331,-2.6332,-2.6342,-2.6335,-2.6306,-2.6305,-2.6304,-2.6304,0,-2.6274,-2.6254,-2.631,-2.6303,-2.6302,-2.6344,-2.6338,-2.6369,-2.6357,-2.6398,-2.6406,-2.6388,-2.6419,-2.6398,-2.6429,-2.6418,-2.6488,-2.6472,-2.6487,-2.6483,-2.6539,-2.6535,-2.6721,-2.6744,-2.6567,-2.6569,-2.657,0,-2.6358,-2.6396,-2.6393,-2.6412,-2.6415,-2.6444,-2.646,-2.643,-2.6448,-2.6458,-2.6488,-2.6515,-2.6536,-2.6588,-2.6578,-2.6602,-2.6587,-2.665,-2.6591,-2.6599,-2.6591,-2.659,-2.6594,-2.6664,-2.6666,-2.6667,-2.6669,0,-2.6509,-2.6497,-2.652,-2.6541,-2.656,-2.6575,-2.6586,-2.6603,-2.6574,-2.6596,-2.6627,-2.6643,-2.6674,-2.6703,-2.6723,-2.6724,-2.6693,-2.6687,-2.6701,-2.6713,-2.672,-2.6719,-2.6522,-2.6684,-2.6682,-2.6681,-2.668,-2.668,-2.6623,-2.6655,-2.6658,-2.6686,-2.6691,-2.6703,-2.6731,-2.6723,-2.6748,-2.6771,-2.6752,-2.679,-2.6795,-2.6818,-2.6823,-2.6852,-2.6827,-2.6847,-2.6852,-2.6858,-2.6867,-2.6714,-2.6856,-2.6855,-2.6855,-2.6854,-2.6854,0,-2.6774,-2.6773,-2.6799,-2.6816,-2.6838,-2.6804,-2.6815,-2.6836,-2.687,-2.6877,-2.6897,-2.6934,-2.6961,-2.6953,-2.6977,-2.7002,-2.6989,-2.701,-2.7009,-2.701,-2.6888,-2.6874,-2.7021,-2.7021,-2.7021,-2.7021,-2.7021,-2.7021,-2.6855,-2.6908,-2.6897,-2.6952,-2.6951,-2.6987,-2.6997,-2.7007,-2.7013,-2.7055,-2.7077,-2.7071,-2.7072,-2.7097,-2.712,-2.7117,-2.7129,-2.7156,-2.7149,-2.7035,-2.7019,-2.7003,-2.699,-2.7159,-2.7159,-2.7268,-2.727,-2.727]},{"header":{"parameterUnit":"m.s-1","parameterCategory":1,"la1":30.2991,"la2":30.254,"lo1":-89.0895,"lo2":-89.0444,"dy":0.0017,"dx":0.0017,"nx":28,"ny":28,"refTime":"2024-12-03T09:00:00:Z","depth":0,"parameterNumber":3,"parameterNumberName":"V-component_of_WINDS"},"data":[0,0,0,0,0,0,0,0,0,0,0,0,0,0,0,0,0,0,0,0,0,0,0,0,0,0,0,0,0,0,0,0,0,0,0,0,0,0,0,0,0,0,0,0,0,0,0,0,0,0,0,0,0,0,0,0,0,0,-3.864,-3.8641,0,-3.87,-3.8701,-3.8702,-3.8678,-3.8677,-3.8675,-3.8674,-3.8733,-3.8736,-3.8739,0,0,0,0,0,0,0,0,0,0,0,0,0,-3.8502,-3.8505,-3.864,-3.8641,-3.8642,-3.87,-3.8701,-3.8702,-3.8679,-3.8677,-3.8675,-3.8674,-3.8732,-3.8736,-3.8739,0,0,0,0,0,0,0,0,0,0,0,0,0,-3.8562,-3.8506,-3.864,-3.8637,-3.8638,-3.87,-3.8701,-3.8702,-3.8679,-3.8677,-3.8675,-3.8673,-3.8731,-3.8735,-3.8739,-3.8808,0,0,-3.8753,-3.8754,0,0,0,0,0,0,0,0,-3.8559,-3.8567,-3.8637,-3.8637,-3.8638,-3.868,-3.8674,-3.8737,-3.8679,-3.8663,-3.8674,-3.8672,-3.8717,-3.8722,-3.8738,-3.881,-3.8813,-3.8753,-3.8756,-3.8757,-3.8759,0,0,0,0,0,0,0,-3.8555,-3.8564,-3.8664,-3.8638,-3.8639,-3.8632,-3.8638,-3.8686,-3.8701,-3.8664,-3.8663,-3.867,-3.8717,-3.8734,-3.8739,-3.8814,-3.8753,-3.8757,-3.8759,-3.8761,-3.8945,-3.8948,0,0,0,0,0,0,-3.8551,-3.8561,-3.8662,-3.8666,-3.8593,-3.8636,-3.8643,-3.8668,-3.87,-3.8703,-3.8672,-3.8669,-3.8728,-3.8734,-3.8741,-3.8824,-3.8757,-3.8761,-3.8764,-3.8943,-3.8946,-3.8948,0,0,0,0,0,0,-3.8548,-3.856,-3.866,-3.8613,-3.8625,-3.8641,-3.8669,-3.8671,-3.8688,-3.8706,-3.8708,-3.8687,-3.8726,-3.8735,-3.8792,-3.8826,-3.8763,-3.8767,-3.894,-3.8944,-3.8947,-3.8989,0,0,0,0,0,0,-3.8544,-3.8559,-3.8586,-3.8614,-3.8628,-3.871,-3.8671,-3.8673,-3.8696,-3.8692,-3.8721,-3.8724,-3.8725,-3.8785,-3.8796,-3.883,-3.8771,-3.8937,-3.8942,-3.8946,-3.8985,-3.8994,-3.9002,0,0,0,0,0,-3.8539,-3.8595,-3.8587,-3.86,-3.8662,-3.8712,-3.872,-3.8722,-3.8698,-3.8725,-3.8737,-3.8723,-3.882,-3.8791,-3.8803,-3.8839,-3.8935,-3.8941,-3.8946,-3.8981,-3.8992,-3.9001,0,0,0,0,0,0,-3.8569,-3.8598,-3.8591,-3.8657,-3.8682,-3.8708,-3.8742,-3.8733,-3.8764,-3.876,-3.8759,-3.8766,-3.8825,-3.8837,-3.8805,-3.8907,-3.8874,-3.8882,-3.8897,-3.8907,-3.8916,-3.8912,-3.8774,0,0,0,0,0,-3.8583,-3.8623,-3.8646,-3.8702,-3.8715,-3.8726,-3.8748,-3.8747,-3.8773,-3.8784,-3.8799,-3.8824,-3.886,-3.8884,-3.8919,-3.8986,-3.8992,-3.9017,-3.9025,-3.9032,-3.9039,-3.9076,-3.9088,-3.8966,-3.8966,-3.8966,0,0,-3.8613,-3.8634,-3.8659,-3.8708,-3.8728,-3.8768,-3.8736,-3.8779,-3.8809,-3.879,-3.8845,-3.8857,-3.8885,-3.8948,-3.8976,-3.896,-3.9074,-3.9038,-3.9044,-3.9047,-3.9083,-3.9094,-3.9105,-3.8969,-3.8969,-3.8968,0,0,-3.8689,-3.8708,-3.8758,-3.8779,-3.8809,-3.8816,-3.8828,-3.8855,-3.8863,-3.8918,-3.8905,-3.894,-3.9002,-3.9023,-3.9041,-3.9124,-3.9113,-3.9135,-3.9179,-3.9215,-3.9225,-3.9233,-3.9264,-3.9275,-3.9142,-3.9142,-3.9142,0,-3.8722,-3.8783,-3.8784,-3.883,-3.8852,-3.8837,-3.8887,-3.8907,-3.8946,-3.8962,-3.8943,-3.9021,-3.9039,-3.9107,-3.9127,-3.9142,-3.9156,-3.9133,-3.9223,-3.9232,-3.924,-3.9269,-3.9281,-3.9145,-3.9145,-3.9144,-3.9144,0,-3.8823,-3.8866,-3.8902,-3.8942,-3.8968,-3.9015,-3.9023,-3.9049,-3.9045,-3.9054,-3.911,-3.9131,-3.9169,-3.9185,-3.9181,-3.9252,-3.9241,-3.9223,-3.919,-3.9254,-3.9282,-3.9293,-3.9149,-3.9148,-3.9147,-3.9146,0,0,-3.892,-3.8961,-3.8974,-3.8993,-3.9025,-3.9057,-3.9103,-3.9142,-3.9165,-3.9192,-3.9231,-3.9284,-3.9267,-3.9289,-3.9287,-3.9319,-3.9385,-3.9297,-3.9297,-3.9313,-3.9465,-3.948,-3.9493,-3.9377,-3.9379,-3.938,-3.9463,0,-3.9,-3.9082,-3.9085,-3.916,-3.9199,-3.9186,-3.9226,-3.925,-3.9259,-3.9293,-3.9302,-3.9341,-3.9315,-3.9328,-3.9359,-3.937,-3.9415,-3.9364,-3.9413,-3.9415,-3.9408,-3.9507,-3.9522,-3.96,-3.9474,-3.9475,-3.9477,0,-3.9103,-3.9136,-3.9216,-3.9243,-3.926,-3.9296,-3.9332,-3.9364,-3.9391,-3.9395,-3.9419,-3.9413,-3.9459,-3.9424,-3.9488,-3.9453,-3.9473,-3.9481,-3.9484,-3.949,-3.9451,-3.9516,-3.9624,-3.9636,-3.9493,-3.9492,-3.9491,0,-3.9168,-3.9231,-3.9287,-3.9303,-3.9336,-3.9362,-3.9377,-3.9401,-3.9424,-3.9455,-3.947,-3.9505,-3.9525,-3.9552,-3.9555,-3.9529,-3.962,-3.9585,-3.9625,-3.9625,-3.9646,-3.9645,-3.976,-3.9657,-3.9656,-3.9656,-3.9656,0,-3.9257,-3.9307,-3.9317,-3.9352,-3.9407,-3.9408,-3.9462,-3.9474,-3.9496,-3.9533,-3.9522,-3.9556,-3.9558,-3.9592,-3.9595,-3.9648,-3.9656,-3.9661,-3.9662,-3.9663,-3.9663,-3.9677,-3.9673,-3.9659,-3.9659,-3.9658,-3.9657,0,-3.9339,-3.9348,-3.9409,-3.9435,-3.9443,-3.9482,-3.9504,-3.9537,-3.9545,-3.9591,-3.9602,-3.9614,-3.9655,-3.966,-3.9707,-3.9709,-3.9773,-3.9767,-3.9765,-3.9764,-3.9805,-3.9802,-3.9934,-3.9952,-3.9836,-3.9837,-3.9838,0,-3.9396,-3.9434,-3.9465,-3.9489,-3.9506,-3.9545,-3.9569,-3.9571,-3.9596,-3.9629,-3.9658,-3.9697,-3.9729,-3.9794,-3.9807,-3.9843,-3.9838,-3.9882,-3.9844,-3.9844,-3.984,-3.9839,-3.9843,-3.989,-3.9891,-3.9892,-3.9893,0,-3.9497,-3.95,-3.9535,-3.9573,-3.9602,-3.9631,-3.9659,-3.9679,-3.9684,-3.9713,-3.9755,-3.9779,-3.9828,-3.9867,-3.9903,-3.9916,-3.9906,-3.9905,-3.9917,-3.9919,-3.9917,-3.992,-3.9787,-3.9902,-3.9901,-3.9901,-3.99,-3.99,-3.9569,-3.9603,-3.963,-3.967,-3.9691,-3.9717,-3.975,-3.9762,-3.9798,-3.9838,-3.9836,-3.9883,-3.9908,-3.9954,-3.9971,-4.0006,-3.9992,-4.0008,-4.0013,-4.0017,-4.0022,-3.991,-4.0013,-4.0012,-4.0012,-4.0012,-4.0012,0,-3.9671,-3.9688,-3.9725,-3.9764,-3.9796,-3.9783,-3.9813,-3.984,-3.9881,-3.9906,-3.9938,-3.9986,-4.0024,-4.0039,-4.0077,-4.0102,-4.0098,-4.0112,-4.0111,-4.0115,-4.0032,-4.0019,-4.0115,-4.0115,-4.0115,-4.0115,-4.0115,-4.0115,-3.9728,-3.9784,-3.979,-3.9857,-3.9873,-3.9919,-3.9937,-3.9961,-3.9981,-4.0036,-4.0068,-4.0078,-4.0099,-4.0137,-4.0172,-4.0175,-4.019,-4.0206,-4.0208,-4.0131,-4.012,-4.011,-4.0098,-4.0209,-4.0209,-4.0287,-4.0288,-4.0289]}]]